Wetbulb
74.04 73.56 72.11 69.42 61.38 59.96 56.74 58.43 62.08 60.58 60.42 64.15 65.52 63.93 62.69 63.50 59.89 54.36 66.75 69.12 71.70 72.41 75.21 76.18 77.81 77.46 76.81 77.51 77.48 77.64 77.38 76.82 77.55 77.20 77.26 77.11 77.11 76.95 76.93 76.85 76.72 77.21 76.38 75.72 75.83 75.71 75.69 75.49 74.76
72.93 72.20 71.40 67.18 58.72 54.10 55.72 61.09 60.18 61.56 64.22 65.16 66.64 65.62 64.34 61.17 64.36 64.33 66.09 70.72 72.50 74.38 75.00 75.35 77.70 77.77 77.04 77.47 77.58 77.43 77.04 77.33 77.39 77.17 77.05 76.74 76.87 76.77 76.84 76.94 76.94 76.63 76.38 75.61 75.50 75.55 75.33 75.44 75.09
71.95 71.90 66.64 62.74 58.59 52.75 55.57 60.69 61.39 64.49 66.04 65.99 65.20 67.21 65.15 62.19 64.83 65.79 69.12 71.73 73.20 74.23 75.13 76.06 78.10 78.01 77.05 77.14 77.45 77.45 77.15 76.88 77.00 77.09 76.91 77.08 76.92 76.94 77.13 76.73 76.94 76.48 76.32 76.10 75.69 75.39 75.44 75.39 75.19
68.89 68.20 66.67 59.19 56.16 59.30 59.75 61.99 64.45 63.94 66.25 66.85 65.62 62.00 64.48 67.42 65.78 67.74 70.42 72.34 73.33 74.33 75.76 77.52 77.72 76.84 77.20 77.15 76.92 77.65 77.22 77.19 76.90 76.99 77.10 77.10 76.99 76.30 76.46 76.59 76.65 76.54 76.19 75.99 75.75 75.50 75.28 75.42 75.16
70.74 68.11 59.35 57.01 56.72 60.54 62.66 64.47 65.03 63.73 65.20 65.45 65.28 59.65 61.12 65.87 68.42 69.33 70.14 72.96 73.03 74.04 75.78 76.23 78.00 78.08 77.54 76.95 77.26 77.20 77.49 76.90 77.14 77.12 77.09 77.25 77.26 77.07 76.66 76.41 76.33 76.47 76.16 75.86 75.59 75.14 74.92 74.84 74.89
64.64 63.76 53.76 53.22 56.51 60.76 63.59 65.45 65.98 65.30 64.75 62.88 60.73 60.21 61.92 66.74 67.54 68.54 71.61 72.81 74.08 74.31 75.28 75.82 77.88 78.37 77.91 77.27 77.02 77.46 77.02 76.68 76.93 76.94 77.02 77.29 77.37 77.60 76.85 76.67 76.53 76.39 76.20 76.06 75.78 75.69 75.28 75.25 74.76
61.08 58.67 54.79 55.22 56.74 58.10 62.29 66.05 64.79 64.67 64.46 63.30 65.94 61.34 62.81 64.78 67.38 68.79 72.28 72.94 74.06 74.83 74.88 74.95 75.22 75.88 77.63 77.80 77.75 76.80 76.69 76.68 76.85 76.87 76.79 76.60 76.76 76.92 77.08 77.03 76.70 76.31 76.14 75.84 75.62 75.78 75.66 75.22 75.02
64.72 60.75 55.58 56.92 56.15 56.41 63.80 64.30 67.41 66.19 64.54 68.61 67.35 61.06 60.14 64.79 67.83 68.64 72.18 71.96 73.13 73.83 74.08 73.39 73.21 73.66 74.71 75.06 77.75 76.87 76.88 76.94 76.77 76.63 76.61 76.42 76.16 76.00 76.34 77.14 77.47 76.25 75.80 75.72 75.67 75.64 75.66 75.32 75.49
69.55 59.81 56.11 57.45 57.72 58.95 63.94 63.20 67.59 68.68 65.80 67.01 67.68 65.50 65.93 67.44 67.66 69.34 69.93 70.50 71.52 72.93 73.12 73.21 72.88 73.06 73.62 74.64 75.78 76.90 77.02 77.12 77.10 76.50 76.71 72.93 72.60 73.21 74.96 75.77 76.36 76.17 75.97 75.69 75.56 75.59 75.83 75.51 75.50
64.46 57.66 58.71 61.74 61.04 60.36 62.89 64.56 65.67 65.05 65.01 64.32 64.17 66.81 66.86 66.88 66.80 67.62 68.05 68.13 69.57 70.98 72.29 72.59 72.53 72.63 72.89 75.20 73.43 73.17 74.46 74.54 74.28 72.67 69.28 70.51 71.57 72.87 74.55 75.37 76.67 76.42 76.42 76.44 76.59 76.23 75.58 75.11 72.59
62.81 59.20 62.17 63.00 63.01 62.52 62.02 61.69 66.49 64.54 62.06 63.54 61.59 63.33 64.97 65.61 68.04 67.36 67.89 69.42 69.80 71.25 72.25 71.85 72.08 72.20 72.13 72.49 72.52 72.60 72.94 73.20 72.96 69.49 68.57 70.42 72.08 69.39 70.54 72.52 73.22 72.84 75.30 73.06 74.39 73.96 73.68 73.68 72.73
57.96 62.45 63.45 63.67 64.04 62.27 60.75 62.55 64.60 65.70 64.97 66.83 64.99 64.97 65.29 66.84 66.96 67.48 67.72 69.27 69.96 70.86 71.32 71.37 71.50 71.83 70.99 72.24 72.29 72.61 72.39 72.25 72.60 66.77 68.15 71.06 69.69 70.62 69.77 71.95 71.03 72.01 73.70 72.85 73.46 72.15 72.49 72.30 71.77
56.92 60.54 63.30 64.39 64.29 62.24 62.69 62.31 63.12 64.33 67.28 67.36 65.38 65.24 65.24 66.66 67.39 68.39 69.09 69.94 70.22 69.88 70.31 70.63 71.41 71.59 71.15 71.10 70.98 71.44 71.50 72.02 72.84 68.66 68.17 71.24 71.86 70.67 69.27 67.43 68.57 69.57 73.71 73.22 71.79 72.02 72.56 70.41 70.55
59.54 59.71 61.44 63.29 63.22 63.52 61.42 61.89 65.03 65.85 67.19 66.28 65.23 64.18 65.53 67.13 67.53 68.23 68.71 68.91 68.93 69.63 69.25 70.20 70.47 71.39 71.43 70.67 69.24 70.54 70.60 70.94 72.79 71.55 68.71 71.87 72.20 70.73 71.14 70.27 70.90 71.09 71.98 73.25 72.00 71.24 70.62 70.56 70.03
56.23 56.24 59.28 60.62 62.83 62.10 63.21 59.72 63.23 66.87 67.18 65.39 65.14 65.50 66.86 67.72 68.45 68.20 69.07 69.04 69.53 69.14 69.23 69.33 70.01 71.65 71.29 70.25 70.10 70.86 71.23 71.20 73.13 73.92 72.51 73.55 72.58 72.03 71.29 71.20 70.94 72.16 72.96 72.53 72.10 71.22 70.58 68.98 70.25
53.02 52.63 49.87 56.13 61.90 62.97 61.84 55.65 63.39 66.36 65.93 64.67 65.34 66.10 66.51 67.20 68.16 68.36 69.11 69.36 69.59 70.18 68.37 69.40 71.22 71.91 71.52 71.87 70.86 72.04 70.34 69.23 71.64 73.25 73.14 72.66 72.88 72.70 71.60 71.85 71.80 71.94 72.78 73.00 71.48 70.23 69.10 68.05 69.14
46.46 45.45 47.92 52.40 61.80 61.05 59.80 57.01 63.64 66.60 65.25 64.28 64.81 65.56 66.02 66.61 67.80 68.62 69.31 69.49 69.17 70.15 68.68 69.49 70.15 71.62 70.75 70.94 70.86 71.58 71.36 70.69 69.83 71.87 71.77 71.82 73.09 73.18 72.16 71.92 72.42 73.05 72.22 72.01 72.02 69.86 68.80 67.43 67.60
41.83 44.92 47.59 50.34 58.26 59.57 58.80 57.75 62.50 64.21 65.09 64.59 64.68 65.49 65.46 65.91 66.78 68.47 69.36 69.94 69.98 68.88 70.11 69.82 70.15 71.47 70.76 71.27 70.38 70.59 70.46 71.10 70.69 69.83 71.40 71.82 72.79 73.76 73.25 72.46 72.05 70.46 71.14 70.48 70.72 70.42 70.31 70.07 68.28
48.41 47.88 48.39 52.90 56.64 58.86 58.45 57.77 60.27 63.73 64.03 64.28 64.71 65.44 65.56 65.85 67.81 68.75 69.43 69.94 69.76 68.94 69.98 69.59 69.63 70.69 70.95 70.41 69.87 68.68 68.24 69.31 69.82 69.32 71.66 72.49 72.96 73.83 73.10 72.73 71.65 72.04 70.88 71.11 70.73 70.38 68.42 66.87 64.13
47.86 47.45 48.58 53.05 56.02 55.04 57.75 57.10 60.34 61.87 62.39 63.97 63.50 63.38 65.23 66.22 67.13 67.88 68.54 69.49 69.43 68.57 69.90 69.74 69.90 70.00 70.81 70.93 70.93 69.83 69.20 69.44 70.07 68.98 72.28 73.14 73.36 74.08 73.69 72.47 71.90 71.68 72.37 71.44 71.04 68.97 67.95 67.65 63.84
47.54 46.21 48.40 49.47 53.31 53.54 57.67 55.33 57.16 60.24 60.58 62.34 64.31 65.01 65.38 64.79 66.34 67.38 68.05 69.05 69.71 68.54 69.09 69.18 70.27 70.24 70.83 71.22 70.45 70.18 70.69 69.16 68.89 68.20 68.23 73.13 73.88 74.18 74.15 73.56 73.08 72.14 71.94 70.79 70.65 70.30 68.41 64.75 64.12
44.64 50.89 51.12 51.24 48.77 44.67 53.35 47.64 54.23 57.42 57.85 60.58 62.07 63.94 64.48 65.13 64.54 67.90 68.44 68.81 69.61 69.00 69.69 69.70 70.90 70.78 71.05 71.64 70.33 70.06 70.13 69.41 68.44 67.57 67.95 71.79 73.59 73.24 74.00 73.45 73.04 72.62 71.44 71.08 71.21 71.98 69.21 66.63 62.27
48.20 51.78 50.85 51.09 47.17 43.59 48.66 47.17 52.02 57.02 55.48 57.69 60.92 63.44 64.07 64.76 65.33 65.58 68.51 69.24 69.94 69.76 69.21 70.18 71.26 71.09 71.27 71.97 71.03 70.24 69.42 69.49 68.11 67.71 67.74 68.48 71.95 72.69 74.33 74.04 73.53 72.07 72.24 72.31 71.19 71.88 70.45 67.15 64.36
53.16 50.20 49.43 49.29 44.31 40.16 47.03 44.67 47.36 53.20 55.97 57.70 60.55 62.55 63.78 61.93 64.32 65.48 68.43 69.38 69.23 69.92 69.77 69.98 70.68 70.96 71.29 71.91 71.34 70.59 69.39 67.83 67.38 66.76 66.97 67.20 69.91 71.33 73.56 74.53 73.82 72.66 72.26 71.75 71.62 71.97 70.86 70.79 68.13
51.87 44.53 39.96 36.13 37.96 37.98 46.04 42.97 45.69 56.44 58.99 59.79 59.98 62.03 63.69 63.20 63.38 65.04 66.81 67.30 68.20 68.93 69.63 69.22 70.45 70.66 71.22 71.54 71.30 70.89 70.30 68.86 68.21 67.17 66.41 67.56 69.83 70.83 71.96 74.12 73.82 72.84 72.29 72.34 72.26 71.97 70.78 69.22 70.16
48.31 47.35 37.54 32.73 33.63 39.71 42.23 39.56 45.04 57.68 60.71 61.95 62.22 62.83 63.93 63.36 64.53 65.42 67.07 67.67 68.15 68.95 69.65 69.61 69.30 70.37 71.51 71.47 71.05 71.13 69.75 70.55 69.41 67.98 67.78 67.27 70.05 72.21 72.79 74.31 74.56 73.95 72.90 72.64 72.50 72.64 71.83 71.16 70.20
48.39 45.12 45.91 37.06 36.09 35.62 39.19 42.84 48.02 51.36 57.81 61.34 61.76 62.42 62.58 63.02 64.21 65.83 67.43 67.99 68.13 68.96 69.49 69.99 69.44 69.74 71.56 71.62 71.64 71.48 71.45 70.69 70.36 69.44 68.77 68.83 69.91 73.01 73.36 73.96 74.71 74.38 73.58 72.83 73.43 72.41 72.67 72.16 70.96
50.66 48.19 40.51 36.33 34.31 30.83 37.11 39.05 43.17 46.57 48.29 56.19 59.85 61.42 62.56 63.54 64.88 66.74 67.38 68.07 68.50 69.23 70.00 70.59 70.67 69.88 70.95 72.18 71.66 71.19 71.42 72.86 71.78 69.88 68.89 70.64 70.00 71.38 72.94 73.26 73.91 74.72 74.15 73.33 72.70 72.62 73.06 73.05 72.11
44.77 46.35 43.84 42.57 37.27 36.41 33.07 39.24 46.23 46.87 48.53 49.35 55.73 62.04 63.17 64.46 65.53 67.43 67.54 68.29 68.62 68.83 69.89 70.44 70.83 70.59 70.76 71.51 72.49 72.08 71.44 70.86 72.80 72.21 69.93 70.14 69.96 71.63 70.81 72.86 73.36 73.83 74.00 73.42 72.64 72.04 72.66 72.44 72.57
51.97 43.47 44.37 41.17 35.50 36.05 37.18 42.03 50.74 50.50 50.87 51.93 52.37 61.26 63.83 66.05 67.13 67.95 67.59 68.03 68.05 68.11 69.03 69.90 70.97 71.08 71.18 71.74 72.13 72.50 72.65 72.21 70.47 71.80 72.80 71.35 70.35 70.73 72.03 73.73 73.27 73.11 74.16 74.08 73.13 72.56 73.43 73.19 72.35
MSLP
1011.61 1011.79 1012.05 1012.10 1012.48 1011.64 1010.37 1009.45 1008.72 1007.82 1007.80 1007.55 1008.40 1008.87 1010.19 1011.47 1012.54 1014.14 1014.12 1014.40 1014.50 1014.94 1015.12 1015.40 1015.66 1015.98 1016.21 1016.40 1016.55 1016.77 1016.94 1017.08 1017.25 1017.34 1017.32 1017.30 1017.40 1017.45 1017.49 1017.54 1017.58 1017.64 1017.78 1017.88 1017.91 1017.96 1018.07 1018.18 1018.18
1011.43 1011.90 1011.89 1011.76 1011.70 1010.90 1009.80 1008.68 1007.84 1007.06 1006.96 1007.53 1008.39 1009.24 1010.21 1011.89 1012.74 1013.76 1014.26 1014.47 1014.45 1014.76 1015.19 1015.58 1015.85 1016.15 1016.37 1016.56 1016.74 1016.96 1017.08 1017.24 1017.40 1017.42 1017.49 1017.55 1017.64 1017.63 1017.64 1017.79 1017.83 1017.92 1018.02 1018.15 1018.14 1018.16 1018.33 1018.44 1018.41
1011.32 1011.14 1011.51 1011.35 1011.06 1010.49 1009.36 1008.18 1007.32 1006.97 1007.00 1007.46 1008.70 1009.46 1010.80 1012.31 1013.05 1013.66 1013.68 1014.20 1014.52 1014.95 1015.31 1015.66 1015.99 1016.29 1016.48 1016.74 1016.92 1017.10 1017.29 1017.43 1017.62 1017.66 1017.75 1017.78 1017.76 1017.85 1017.91 1018.03 1018.23 1018.28 1018.31 1018.35 1018.33 1018.32 1018.44 1018.59 1018.61
1010.97 1011.26 1011.22 1011.10 1010.72 1009.68 1009.13 1007.94 1007.09 1007.32 1007.43 1007.98 1009.14 1010.74 1012.05 1012.27 1012.82 1013.04 1013.70 1014.04 1014.75 1015.08 1015.38 1015.68 1016.11 1016.40 1016.65 1016.91 1017.08 1017.22 1017.42 1017.57 1017.77 1017.80 1017.82 1017.87 1017.90 1018.07 1018.18 1018.22 1018.32 1018.48 1018.51 1018.46 1018.45 1018.44 1018.50 1018.61 1018.62
1010.85 1010.64 1010.91 1010.70 1010.10 1009.34 1008.73 1008.27 1007.39 1007.38 1007.49 1008.54 1009.52 1011.82 1012.82 1013.19 1012.93 1013.50 1013.95 1014.42 1014.84 1015.32 1015.54 1015.80 1016.16 1016.49 1016.81 1017.08 1017.23 1017.32 1017.54 1017.76 1017.90 1017.92 1017.94 1017.92 1017.99 1018.10 1018.26 1018.33 1018.44 1018.60 1018.65 1018.64 1018.63 1018.58 1018.64 1018.74 1018.87
1010.71 1010.74 1010.99 1010.54 1009.81 1009.04 1008.53 1008.11 1007.45 1007.27 1008.12 1009.25 1010.53 1011.75 1013.37 1013.38 1013.51 1013.98 1014.17 1014.68 1014.99 1015.40 1015.68 1016.01 1016.30 1016.64 1016.92 1017.17 1017.43 1017.46 1017.71 1017.91 1018.04 1018.10 1018.08 1018.13 1018.17 1018.13 1018.26 1018.40 1018.56 1018.66 1018.68 1018.72 1018.79 1018.87 1018.83 1018.79 1018.91
1010.56 1010.84 1010.64 1010.35 1009.33 1009.10 1008.92 1008.24 1007.29 1007.46 1007.93 1009.02 1009.58 1011.31 1013.29 1013.69 1013.84 1014.16 1014.54 1015.01 1015.24 1015.52 1015.82 1016.18 1016.41 1016.64 1016.94 1017.32 1017.51 1017.62 1017.82 1017.99 1018.13 1018.17 1018.12 1018.18 1018.22 1018.26 1018.36 1018.51 1018.60 1018.57 1018.66 1018.78 1018.93 1019.04 1018.98 1018.93 1018.97
1009.82 1010.45 1010.60 1010.34 1009.41 1009.24 1008.60 1008.39 1007.34 1007.32 1007.96 1008.73 1009.36 1010.84 1012.51 1012.95 1013.69 1014.30 1014.79 1015.36 1015.76 1015.86 1016.09 1016.40 1016.58 1016.74 1017.12 1017.50 1017.56 1017.68 1017.86 1017.98 1018.05 1018.11 1018.09 1018.11 1018.24 1018.40 1018.56 1018.66 1018.70 1018.65 1018.62 1018.85 1019.00 1019.13 1019.03 1019.06 1019.25
1009.50 1009.93 1009.46 1008.73 1008.12 1007.98 1007.76 1007.38 1006.91 1007.10 1007.83 1008.54 1009.03 1009.76 1011.34 1012.50 1013.60 1014.35 1014.90 1015.63 1016.10 1016.34 1016.50 1016.59 1016.73 1017.02 1017.34 1017.62 1017.61 1017.73 1017.84 1017.88 1017.98 1018.02 1018.04 1018.15 1018.39 1018.57 1018.68 1018.74 1018.72 1018.70 1018.64 1018.88 1019.12 1019.13 1019.18 1019.08 1019.28
1009.38 1009.18 1007.96 1006.95 1006.16 1006.28 1006.35 1006.58 1006.79 1007.75 1008.42 1009.36 1009.75 1010.81 1012.00 1012.77 1013.45 1014.05 1014.73 1015.43 1016.02 1016.42 1016.67 1016.81 1016.84 1017.14 1017.44 1017.48 1017.70 1017.90 1017.89 1017.90 1018.02 1018.23 1018.44 1018.52 1018.42 1018.48 1018.54 1018.68 1018.67 1018.66 1018.65 1018.86 1019.04 1019.08 1019.24 1019.42 1019.44
1008.14 1007.37 1006.26 1005.66 1005.21 1005.20 1005.66 1006.47 1006.49 1007.86 1008.92 1008.66 1009.57 1010.69 1012.05 1012.82 1013.42 1014.01 1014.63 1015.28 1015.67 1016.16 1016.52 1016.77 1016.81 1017.15 1017.30 1017.41 1017.76 1017.90 1017.94 1018.00 1018.18 1018.39 1018.66 1018.65 1018.57 1018.51 1018.58 1018.62 1018.78 1019.00 1018.86 1018.91 1019.06 1019.14 1019.35 1019.50 1019.55
1007.45 1005.96 1005.92 1004.61 1004.83 1004.99 1005.61 1006.37 1007.11 1006.89 1007.59 1008.88 1009.17 1009.49 1010.94 1012.20 1013.02 1013.60 1014.25 1014.94 1015.48 1016.00 1016.19 1016.53 1016.66 1017.04 1017.14 1017.36 1017.59 1017.72 1017.78 1018.00 1018.06 1018.53 1018.64 1018.60 1018.60 1018.80 1018.91 1018.68 1018.91 1019.03 1018.98 1018.91 1019.01 1019.34 1019.46 1019.50 1019.54
1006.66 1005.42 1004.96 1004.22 1004.32 1004.82 1005.80 1006.14 1006.72 1007.34 1007.75 1009.24 1010.30 1010.92 1011.33 1012.00 1012.76 1013.33 1014.00 1014.73 1015.23 1015.61 1015.87 1016.20 1016.40 1016.82 1016.90 1017.18 1017.45 1017.63 1017.67 1017.75 1017.74 1018.14 1018.42 1018.27 1018.46 1018.88 1018.91 1018.71 1018.91 1019.07 1019.01 1019.03 1018.96 1019.29 1019.27 1019.08 1019.39
1004.97 1004.99 1004.62 1004.04 1004.41 1005.25 1005.53 1006.07 1006.51 1008.08 1008.01 1009.55 1010.15 1011.07 1011.56 1011.86 1012.33 1012.92 1013.52 1014.20 1014.69 1015.09 1015.48 1015.88 1016.16 1016.40 1016.66 1016.88 1017.21 1017.36 1017.51 1017.52 1017.64 1017.90 1018.18 1018.15 1018.39 1018.63 1018.55 1018.69 1018.92 1018.96 1019.14 1019.07 1018.98 1019.18 1019.33 1019.32 1019.56
1004.93 1005.00 1004.30 1004.00 1004.14 1004.86 1005.32 1006.52 1007.74 1008.84 1009.41 1009.66 1010.59 1011.08 1011.28 1011.78 1012.16 1012.37 1012.74 1013.44 1014.05 1014.51 1014.98 1015.53 1015.87 1016.08 1016.41 1016.78 1016.86 1016.91 1017.14 1017.23 1017.26 1017.51 1017.96 1017.98 1018.08 1018.21 1018.39 1018.88 1019.08 1018.89 1018.84 1018.92 1019.07 1019.28 1019.26 1019.47 1019.37
1005.01 1004.81 1004.27 1003.53 1003.93 1004.30 1004.66 1006.23 1007.65 1008.33 1008.50 1009.57 1009.94 1010.62 1011.12 1011.40 1011.60 1011.91 1012.36 1012.90 1013.56 1014.10 1014.60 1015.15 1015.54 1015.95 1016.15 1016.33 1016.49 1016.58 1016.66 1016.83 1016.96 1017.16 1017.44 1017.74 1017.84 1017.99 1018.52 1018.83 1018.81 1018.78 1018.79 1018.92 1019.14 1019.46 1019.45 1019.53 1019.57
1004.85 1004.53 1004.06 1003.61 1003.36 1004.06 1004.83 1006.26 1007.64 1008.50 1008.25 1008.18 1009.30 1009.86 1010.47 1011.03 1011.24 1011.35 1011.62 1012.19 1012.85 1013.44 1014.00 1014.64 1015.21 1015.62 1015.87 1015.84 1015.90 1016.15 1016.39 1016.84 1016.81 1016.96 1017.14 1017.49 1017.71 1017.97 1018.35 1018.72 1018.61 1018.50 1018.76 1018.91 1019.05 1019.45 1019.52 1019.65 1019.70
1004.82 1004.40 1003.66 1003.02 1003.12 1003.85 1004.78 1005.51 1007.14 1007.52 1008.18 1008.39 1008.84 1009.28 1009.52 1009.19 1009.90 1010.56 1011.04 1011.54 1012.25 1012.92 1013.38 1014.08 1014.70 1015.27 1015.55 1015.64 1015.84 1016.04 1016.40 1016.42 1016.81 1016.97 1017.10 1017.32 1017.52 1017.70 1018.02 1018.42 1018.74 1018.84 1018.92 1019.31 1019.37 1019.49 1019.56 1019.70 1019.87
1004.29 1003.87 1003.26 1002.03 1001.84 1003.20 1004.25 1005.07 1005.84 1006.54 1008.06 1007.95 1008.76 1008.86 1008.81 1008.79 1008.77 1009.85 1010.24 1010.88 1011.58 1012.39 1012.91 1013.44 1014.10 1014.74 1015.25 1015.64 1016.07 1016.24 1016.50 1016.55 1016.76 1016.93 1016.78 1017.14 1017.28 1017.45 1017.90 1018.27 1018.58 1018.80 1019.05 1019.21 1019.41 1019.64 1019.71 1019.91 1020.04
1003.84 1003.40 1002.62 1001.84 1001.02 1002.00 1003.70 1004.81 1005.88 1006.52 1006.74 1006.72 1006.98 1007.63 1007.69 1007.76 1008.58 1009.02 1009.69 1010.26 1010.75 1011.59 1012.26 1013.03 1013.56 1014.19 1014.68 1015.04 1015.46 1015.82 1016.07 1016.31 1016.41 1016.56 1016.66 1016.82 1017.13 1017.34 1017.80 1018.18 1018.62 1018.71 1019.07 1019.19 1019.52 1019.75 1020.04 1020.14 1020.12
1002.61 1002.52 1002.21 1001.96 1001.10 1001.37 1003.21 1004.97 1006.49 1007.78 1007.76 1007.01 1006.76 1006.32 1005.62 1005.29 1006.44 1007.88 1008.52 1009.25 1010.04 1010.81 1011.48 1012.21 1012.89 1013.58 1014.08 1014.61 1015.25 1015.71 1016.04 1016.38 1016.66 1016.69 1016.77 1016.74 1016.95 1017.22 1017.52 1017.82 1018.18 1018.49 1018.82 1019.19 1019.37 1019.58 1019.95 1020.40 1020.46
1001.46 1001.44 1001.74 1002.01 1002.11 1002.35 1002.15 1004.90 1005.94 1006.57 1006.75 1006.49 1005.56 1005.90 1004.95 1005.00 1005.39 1006.52 1007.34 1007.99 1008.82 1009.58 1010.72 1011.45 1012.23 1012.94 1013.56 1014.12 1014.76 1015.13 1015.48 1015.97 1016.20 1016.20 1016.50 1016.70 1016.75 1017.06 1017.28 1017.51 1017.90 1018.24 1018.55 1018.96 1019.10 1019.20 1019.78 1020.20 1020.43
1000.01 1001.18 1001.57 1001.96 1002.42 1002.86 1002.38 1003.90 1004.31 1005.49 1005.57 1005.60 1005.11 1004.24 1004.16 1004.19 1004.21 1004.97 1005.68 1006.24 1007.32 1008.77 1009.85 1010.69 1011.51 1012.24 1012.88 1013.55 1013.96 1014.49 1015.05 1015.50 1015.72 1016.06 1016.32 1016.64 1016.72 1016.77 1017.03 1017.23 1017.62 1018.03 1018.34 1018.56 1018.80 1019.09 1019.52 1019.86 1020.24
999.99 1000.92 1001.46 1001.84 1002.59 1002.83 1001.84 1003.11 1003.34 1004.32 1003.28 1003.02 1003.09 1002.94 1002.98 1003.57 1003.60 1003.84 1004.78 1005.67 1006.56 1007.84 1008.92 1009.99 1010.94 1011.54 1012.11 1012.82 1013.40 1013.86 1014.47 1015.00 1015.60 1015.97 1016.28 1016.44 1016.53 1016.72 1016.70 1016.81 1017.20 1017.56 1017.85 1018.17 1018.33 1018.75 1019.19 1019.63 1019.81
999.72 1000.62 1002.05 1002.46 1002.51 1002.29 1001.52 1002.04 1001.07 1001.22 1001.34 999.90 1000.70 1001.26 1001.81 1002.40 1002.92 1003.26 1003.66 1004.58 1005.69 1006.88 1007.90 1008.95 1010.03 1010.82 1011.44 1012.02 1012.65 1013.19 1013.74 1014.36 1014.84 1015.27 1015.63 1016.04 1016.23 1016.39 1016.48 1016.61 1016.94 1017.32 1017.31 1017.62 1017.93 1018.52 1018.96 1019.36 1019.76
998.88 1000.07 1001.26 1002.13 1002.55 1002.46 1001.34 1000.22 998.57 998.53 998.75 998.93 998.71 999.06 1000.00 1001.24 1001.35 1002.19 1002.60 1003.30 1004.46 1005.74 1006.85 1007.98 1009.04 1009.82 1010.52 1011.15 1011.74 1012.44 1013.18 1013.71 1014.08 1014.48 1014.89 1015.26 1015.62 1015.72 1015.79 1016.04 1016.21 1016.52 1016.84 1017.24 1017.72 1018.27 1018.70 1019.02 1019.40
997.78 998.59 1000.16 1001.61 1002.23 1002.14 1000.41 999.10 997.86 997.28 997.57 998.49 999.00 999.96 1000.32 1000.32 1000.48 1000.90 1001.76 1002.75 1003.66 1004.75 1005.78 1006.80 1007.97 1008.85 1009.62 1010.27 1011.07 1011.77 1012.29 1012.81 1013.24 1013.68 1014.14 1014.66 1014.94 1015.12 1015.22 1015.42 1015.79 1016.02 1016.42 1016.82 1017.36 1017.96 1018.41 1018.67 1018.85
995.78 997.40 998.95 999.98 1001.42 1001.75 1000.06 998.28 996.77 996.39 996.52 996.54 997.16 997.97 998.41 998.60 999.19 1000.01 1000.90 1001.80 1002.62 1003.63 1004.63 1005.90 1006.94 1007.76 1008.56 1009.39 1010.16 1010.92 1011.55 1012.08 1012.52 1013.13 1013.61 1013.96 1014.34 1014.66 1014.77 1015.00 1015.30 1015.71 1016.10 1016.46 1017.02 1017.52 1017.92 1018.23 1018.49
995.83 995.99 997.11 998.89 1000.06 1000.66 999.89 996.80 995.11 995.07 995.03 995.36 995.34 995.80 996.18 996.91 997.58 998.59 999.53 1000.60 1001.52 1002.69 1004.02 1004.99 1006.13 1007.01 1007.94 1008.71 1009.42 1010.11 1010.78 1011.38 1012.12 1012.56 1012.91 1013.26 1013.76 1014.08 1014.24 1014.43 1014.92 1015.34 1015.70 1016.03 1016.58 1016.98 1017.39 1017.84 1017.92
995.21 995.74 996.70 997.52 999.07 999.44 998.54 995.76 994.18 993.89 993.75 993.63 993.86 993.89 994.45 995.45 995.96 996.93 998.25 999.56 1000.99 1002.06 1003.32 1004.24 1005.26 1006.16 1006.85 1007.64 1008.49 1009.22 1009.96 1010.78 1011.45 1011.86 1012.26 1012.65 1013.04 1013.32 1013.61 1014.01 1014.45 1014.67 1014.93 1015.39 1015.84 1016.27 1016.63 1017.03 1017.24
Wind_Speed
11 8 2 2 2 1 2 4 4 9 7 9 15 5 9 6 2 3 7 8 13 10 10 14 17 18 17 15 15 15 14 15 14 15 13 14 13 13 13 13 12 12 13 11 10 9 10 9 10
8 6 2 1 2 0 2 4 6 6 5 16 8 12 4 4 5 10 8 11 13 12 10 12 18 17 17 15 14 14 14 13 14 14 13 13 12 13 12 11 12 13 11 10 8 8 8 8 8
10 7 1 1 1 2 2 4 5 10 15 9 6 8 5 4 11 11 13 14 14 11 9 14 18 17 16 15 14 14 13 13 13 13 13 12 13 12 13 11 12 11 10 9 7 7 6 7 7
5 2 2 1 2 3 3 2 10 11 10 10 13 9 5 4 18 9 17 15 14 12 11 18 19 18 16 15 14 13 13 13 13 12 11 11 13 12 11 11 11 10 9 8 7 5 4 5 6
3 2 1 2 3 2 7 5 10 10 7 9 4 5 10 4 11 19 15 15 15 12 11 15 18 17 16 15 14 13 15 13 11 11 10 11 12 12 11 10 10 9 8 7 6 4 3 3 4
1 1 3 3 4 5 7 5 11 9 9 15 16 14 5 5 17 13 12 15 14 13 11 13 18 17 16 15 14 13 13 12 11 10 8 9 10 10 10 10 9 9 8 6 6 4 3 3 5
3 2 3 4 7 7 7 13 11 12 11 7 16 10 6 12 11 9 15 14 14 13 10 10 10 14 17 14 14 13 12 11 10 9 9 7 7 8 8 8 8 8 6 6 5 5 4 3 4
4 2 2 6 6 6 7 6 9 11 5 16 13 9 13 20 13 7 15 13 12 12 10 7 6 6 6 6 15 13 11 10 9 8 8 7 5 5 5 5 4 6 5 4 4 4 3 3 4
2 1 3 4 9 6 7 7 7 7 15 4 8 10 21 23 14 11 15 13 11 10 9 8 8 6 6 5 8 11 12 10 9 8 7 7 4 2 2 5 5 4 4 3 2 2 2 4 4
7 4 8 8 7 8 13 8 10 9 10 13 18 19 22 21 15 16 15 14 13 13 11 9 8 8 6 6 5 5 5 4 4 4 4 3 4 3 4 5 7 6 5 4 4 3 1 4 1
9 9 10 9 5 2 2 6 6 17 7 15 26 27 27 20 16 15 15 14 13 14 11 10 9 7 7 6 4 3 3 3 3 6 3 3 3 3 2 2 1 0 4 2 1 2 2 1 3
7 13 13 15 5 3 7 5 13 12 8 18 25 31 30 23 19 17 16 17 16 15 14 12 10 9 7 5 5 5 4 3 4 4 5 4 3 3 1 2 2 2 1 4 1 1 3 4 5
15 19 14 17 9 3 9 6 3 4 20 20 22 25 23 20 18 14 12 15 15 15 14 14 12 11 9 8 5 4 5 4 5 4 5 4 3 3 2 2 2 3 2 3 3 2 3 3 1
8 19 22 16 6 2 3 5 5 15 25 23 25 24 19 19 19 15 15 17 15 16 15 14 13 12 10 8 6 5 5 5 5 4 5 5 5 4 3 2 3 3 1 2 3 2 3 0 3
20 18 14 11 15 11 6 4 10 14 14 23 21 20 20 16 19 17 18 17 17 15 15 14 13 12 13 8 7 6 5 7 6 7 6 6 5 6 4 3 3 2 3 0 2 1 2 2 0
9 8 11 9 16 8 12 8 17 23 25 24 24 20 19 18 18 13 16 16 16 15 15 15 13 14 13 10 6 4 4 5 6 5 6 7 6 6 5 3 3 3 1 2 2 3 1 0 1
5 10 6 5 19 10 4 12 15 18 22 25 23 22 21 18 18 16 18 15 14 17 16 18 16 15 12 9 6 5 5 5 4 5 5 7 7 8 6 4 2 2 2 3 2 1 2 2 0
6 5 6 11 15 10 12 14 23 23 22 23 22 22 23 25 24 19 20 18 15 12 18 19 15 15 11 6 4 3 2 1 4 4 4 7 5 7 6 4 4 3 0 2 1 1 0 1 1
5 7 10 8 10 22 18 20 26 24 18 22 19 22 22 24 24 20 19 20 17 13 18 20 19 14 9 5 4 3 4 2 2 3 7 6 6 6 6 4 4 2 3 4 3 1 1 2 2
15 10 13 15 14 8 23 22 23 22 22 25 22 21 22 20 21 21 21 20 19 16 20 19 19 15 12 9 7 4 4 2 2 3 5 7 7 6 6 6 5 5 2 2 2 2 1 2 1
16 16 14 9 8 6 22 12 18 10 9 13 13 19 23 26 25 26 23 23 20 18 22 20 19 18 15 12 6 2 3 1 2 3 3 5 7 7 7 7 5 5 4 4 3 3 3 2 1
18 18 18 14 8 7 8 9 17 19 20 14 19 21 19 19 15 25 26 25 24 21 21 20 19 18 15 14 12 13 10 9 5 4 4 5 8 7 7 7 6 6 4 5 4 3 3 3 2
19 10 15 17 6 1 13 5 9 20 21 19 23 25 21 19 21 19 29 28 26 22 20 19 20 19 16 16 14 12 11 7 4 3 6 5 6 7 8 7 7 6 5 5 6 4 4 3 3
13 11 10 11 4 9 20 8 7 20 31 28 28 25 25 15 20 19 22 23 23 22 21 19 19 19 18 17 15 15 13 8 6 4 6 4 4 6 7 7 7 6 6 6 6 6 6 5 4
16 7 8 5 8 10 11 5 9 31 33 33 34 29 27 20 20 19 24 23 24 24 23 20 20 18 18 19 16 15 13 11 11 8 6 6 5 3 7 7 7 6 6 7 5 5 6 6 4
12 16 8 10 6 11 6 9 8 26 36 33 30 32 32 21 20 23 24 25 24 25 24 23 22 20 19 19 18 15 12 10 9 8 5 6 6 7 8 10 9 9 8 7 6 4 4 5 5
13 18 10 5 1 3 5 6 5 8 14 25 27 22 22 20 21 25 24 24 22 23 25 25 23 22 21 20 16 16 15 15 12 10 8 6 6 6 9 11 11 10 9 8 7 5 6 6 6
23 9 10 4 11 5 6 6 10 9 11 18 22 29 30 25 24 24 23 25 23 22 24 24 23 24 20 20 17 14 14 13 12 9 8 8 7 7 8 9 10 10 10 9 8 5 5 7 4
6 17 7 7 7 9 4 11 8 11 12 12 17 28 28 25 26 26 25 25 25 22 22 23 22 23 20 18 17 16 15 14 11 10 11 11 7 8 8 9 10 10 10 10 9 7 7 8 8
25 7 13 10 10 4 5 14 5 11 12 15 15 26 27 27 30 29 26 25 24 23 21 22 21 21 20 20 18 17 15 13 13 13 10 10 11 9 10 8 8 11 12 11 12 11 10 11 11
Wind_Direction
173 174 191 221 261 237 321 271 304 151 132 162 160 149 144 42 138 176 139 157 135 137 139 138 138 133 126 122 116 114 111 114 112 110 106 105 109 106 106 113 116 115 110 112 111 100 93 89 95
165 163 210 290 294 224 268 199 216 178 150 131 97 123 79 74 88 117 124 152 136 131 134 139 137 136 131 125 121 116 115 114 111 105 106 108 112 108 105 111 114 110 117 120 115 106 101 101 97
165 203 242 233 346 277 242 231 165 117 132 138 99 45 69 102 117 147 140 140 133 127 131 142 139 138 133 131 123 121 121 114 110 106 109 102 100 105 113 109 108 115 116 118 120 120 114 111 108
169 199 265 269 296 272 288 216 150 137 131 80 109 72 61 212 147 149 143 139 128 132 138 138 140 140 137 135 130 129 126 122 116 115 114 109 111 107 105 103 110 115 117 123 122 122 125 127 126
267 235 261 259 295 298 336 265 192 161 93 94 98 78 103 137 125 138 145 136 134 134 137 138 140 142 141 138 135 132 129 123 121 120 115 112 106 111 112 114 114 115 121 129 130 129 124 113 115
116 288 67 328 294 281 327 307 225 115 101 121 101 109 126 112 139 149 141 135 136 134 135 141 143 144 145 143 140 132 127 127 122 122 114 103 109 115 119 118 117 120 127 130 121 106 90 78 77
140 241 127 321 295 21 351 313 225 144 133 120 148 104 123 148 159 143 133 130 135 134 135 139 148 148 145 144 146 136 134 134 133 135 133 123 119 117 121 117 125 127 130 127 118 109 99 81 101
161 105 89 225 31 170 233 216 199 138 99 127 143 150 161 166 165 132 132 133 135 138 137 138 139 130 130 153 147 142 144 144 151 149 140 131 109 125 131 129 137 136 145 136 137 117 120 98 75
263 69 232 219 188 120 11 193 165 110 135 177 181 135 146 156 157 136 135 139 137 142 148 150 142 137 136 147 157 152 157 162 165 161 140 112 100 63 353 170 176 164 188 175 167 178 172 121 107
198 197 229 203 207 171 170 186 139 133 136 100 98 114 144 154 165 152 155 150 153 155 160 159 154 149 152 161 151 162 176 179 180 164 148 145 122 121 151 213 189 193 223 230 217 203 209 123 71
204 233 234 251 216 145 173 139 173 135 154 163 146 144 155 160 163 163 164 158 160 163 163 165 167 157 173 163 165 181 193 186 174 188 143 177 129 100 103 123 69 23 275 285 285 317 342 252 204
260 238 239 263 224 190 158 113 136 187 163 161 152 151 154 161 169 172 163 165 163 166 169 168 175 169 194 162 177 183 195 179 194 176 168 165 139 118 133 112 119 260 220 255 262 186 259 254 236
236 249 253 244 232 221 108 61 331 164 130 141 144 155 157 162 170 167 158 165 166 170 172 176 176 179 192 181 179 184 202 189 206 174 196 137 141 167 185 182 152 231 256 244 258 206 254 260 270
230 236 252 263 185 67 105 67 68 133 137 147 151 162 165 172 170 172 167 175 175 175 176 183 179 184 186 192 181 191 192 202 197 181 196 191 162 170 194 173 229 231 176 250 228 200 180 66 87
249 264 263 250 155 175 137 68 103 134 140 150 160 166 169 177 177 188 179 181 183 181 178 186 183 184 187 187 187 208 206 198 203 182 189 197 176 174 177 190 235 231 227 304 222 37 98 128 66
226 240 252 243 179 159 158 176 146 164 157 170 167 172 178 184 193 180 181 182 188 188 180 186 189 186 182 178 180 174 192 154 191 171 181 176 177 165 151 197 202 210 196 205 185 147 326 177 104
244 240 222 220 183 151 184 125 165 178 177 164 172 177 180 189 201 192 193 186 184 192 183 185 188 188 181 179 168 167 145 149 186 177 172 172 162 156 156 172 207 274 14 195 185 159 160 173 27
220 194 227 229 194 158 186 150 173 191 183 179 178 184 186 187 198 194 195 198 191 175 180 184 183 185 183 164 163 154 163 208 143 202 190 169 176 161 156 155 172 214 265 173 126 141 226 144 211
250 214 250 264 202 194 191 169 182 177 189 177 184 191 193 197 190 200 196 199 199 171 181 185 181 181 172 164 162 176 187 203 206 187 197 184 176 171 160 174 171 206 201 206 157 134 129 50 101
235 242 253 268 269 168 188 182 182 176 190 180 179 187 193 191 192 201 200 201 202 177 184 185 186 181 185 181 186 173 162 200 188 176 199 178 185 171 167 172 175 198 208 204 188 162 87 35 123
222 226 242 233 287 305 158 164 157 197 212 209 213 206 185 181 186 195 199 200 202 185 185 182 185 183 184 182 164 110 90 38 207 217 190 188 187 180 179 184 177 192 166 202 203 164 135 143 302
221 225 240 248 246 252 184 166 196 178 212 216 212 224 200 191 173 193 197 196 199 193 186 183 181 182 183 175 179 185 194 197 201 201 163 190 189 191 188 182 178 186 181 198 200 186 160 143 167
224 217 233 241 227 264 257 114 208 184 200 216 223 222 211 199 183 190 199 193 198 188 186 183 179 180 179 182 185 186 194 197 173 187 200 181 200 195 196 181 177 183 182 211 182 188 179 178 148
205 212 249 241 179 241 253 155 181 184 206 208 220 219 214 207 204 191 194 190 188 188 185 179 179 183 181 184 188 187 193 187 184 185 195 199 194 203 200 190 183 188 187 191 195 197 184 185 145
217 150 224 263 226 228 242 182 215 201 209 204 204 209 212 216 205 195 192 182 183 184 184 182 182 184 185 185 187 189 192 192 195 191 190 180 191 188 204 188 187 195 197 190 189 190 183 181 172
214 205 162 208 194 229 162 212 250 194 205 216 206 199 200 200 195 196 199 189 181 182 182 184 186 188 185 189 190 187 181 194 203 201 184 200 189 200 197 199 195 198 194 195 182 186 179 177 185
201 213 181 140 248 143 225 232 286 201 190 204 206 206 218 209 199 195 197 194 185 183 185 185 187 190 191 192 188 190 193 199 202 203 202 195 186 194 199 197 197 198 194 195 181 184 184 179 193
209 167 185 174 221 236 276 219 214 225 207 206 196 196 208 201 196 196 195 193 190 187 187 186 187 192 192 193 195 196 192 195 204 195 193 194 184 198 195 199 196 197 197 196 184 187 183 188 198
193 205 197 153 154 212 223 256 190 222 226 185 195 193 199 196 191 197 195 193 194 188 185 188 189 190 192 193 194 197 201 202 191 197 205 212 191 191 204 202 200 199 199 198 189 195 187 191 202
213 191 195 199 214 208 176 254 213 217 222 229 209 196 194 193 191 196 191 190 191 189 187 188 190 191 190 191 193 198 196 196 200 206 203 201 206 208 204 194 196 200 199 196 198 202 200 197 206